This is the latest recevied weather packets stored in our database for station/object K5KVN. If no packets are shown the sender has not sent any weather packets the latest 10 day(s).
| Time | Temp. | Humidity | Pressure | Rain* | Wind** | Luminosity | Snow |
|---|---|---|---|---|---|---|---|
| 1787945373 | 33.89° C | 40% | 1020.1 hPa | 0 mm | - | - | - |
| 1787944772 | 33.89° C | 39% | 1020.2 hPa | 0 mm | - | - | - |
| 1787944171 | 33.33° C | 40% | 1020.3 hPa | 0 mm | - | - | - |
| 1787943571 | 33.33° C | 41% | 1020.6 hPa | 0 mm | - | - | - |
| 1787942970 | 33.33° C | 41% | 1020.5 hPa | 0 mm | - | - | - |
| 1787942369 | 32.78° C | 42% | 1020.7 hPa | 0 mm | - | - | - |
| 1787941770 | 32.78° C | 43% | 1020.9 hPa | 0 mm | - | - | - |
| 1787941170 | 32.78° C | 42% | 1021 hPa | 0 mm | - | - | - |
| 1787940569 | 31.67° C | 44% | 1021.1 hPa | 0 mm | - | - | - |
| 1787939968 | 31.67° C | 46% | 1021.3 hPa | 0 mm | - | - | - |
| 1787939366 | 31.67° C | 45% | 1021.5 hPa | 0 mm | - | - | - |
| 1787938827 | 31.11° C | 46% | 1021.5 hPa | 0 mm | - | - | - |
| 1787938168 | 31.11° C | 47% | 1021.4 hPa | 0 mm | - | - | - |
| 1787937566 | 31.67° C | 46% | 1021.6 hPa | 0 mm | - | - | - |
| 1787936966 | 31.67° C | 46% | 1021.6 hPa | 0 mm | - | - | - |
| 1787936425 | 31.11° C | 45% | 1021.6 hPa | 0 mm | - | - | - |
| 1787935764 | 31.11° C | 50% | 1021.7 hPa | 0 mm | - | - | - |
| 1787935164 | 30.56° C | 50% | 1021.6 hPa | 0 mm | - | - | - |
| 1787934563 | 30° C | 54% | 1021.7 hPa | 0 mm | - | - | - |
| 1787933962 | 30° C | 54% | 1021.7 hPa | 0 mm | - | - | - |
| 1787933360 | 29.44° C | 57% | 1021.7 hPa | 0 mm | - | - | - |
| 1787932763 | 29.44° C | 58% | 1021.8 hPa | 0 mm | - | - | - |
| 1787932218 | 28.33° C | 62% | 1021.8 hPa | 0 mm | - | - | - |
| 1787931619 | 28.33° C | 62% | 1021.9 hPa | 0 mm | - | - | - |
| 1787931022 | 27.78° C | 63% | 1021.8 hPa | 0 mm | - | - | - |
* Rain latest hour (hover to see other rain measurements)
** Current wind speed in m/s (hover to see current wind gust speed)